| time (UTC) | temp F | wind direction | speed knots | gust knots | rain 1hr in | rain 24hr in | rain mn in | humidity % | barometer mb |
| 20260505153016 | 55 | 113 | 0.9 | 4.3 | 0.00 | 0.00 | 0.00 | 84 | 1015.8 |
| 20260505152016 | 55 | 180 | 0.9 | 2.6 | 0.00 | 0.00 | 0.00 | 84 | 1015.8 |
| 20260505151016 | 55 | 180 | 1.7 | 3.5 | 0.00 | 0.00 | 0.00 | 84 | 1015.7 |
| 20260505125016 | 55 | 180 | 1.7 | 3.5 | 0.00 | 0.00 | 0.00 | 85 | 1014.5 |
| 20260505124016 | 55 | 180 | 0.9 | 3.5 | 0.00 | 0.00 | 0.00 | 85 | 1014.4 |
| 20260505123016 | 55 | 203 | 0.9 | 1.7 | 0.00 | 0.00 | 0.00 | 85 | 1014.4 |
| 20260505122016 | 55 | 180 | 1.7 | 4.3 | 0.00 | 0.00 | 0.00 | 85 | 1014.3 |
| 20260505121016 | 55 | 203 | 0.9 | 2.6 | 0.00 | 0.00 | 0.00 | 85 | 1014.3 |
| 20260505120016 | 55 | 225 | 1.7 | 4.3 | 0.00 | 0.00 | 0.00 | 85 | 1014.2 |
| 20260505115015 | 55 | 203 | 0.9 | 2.6 | 0.00 | 0.00 | 0.00 | 85 | 1014.2 |
| 20260505114016 | 55 | 203 | 0.9 | 2.6 | 0.00 | 0.00 | 0.00 | 85 | 1014.2 |
| 20260505113016 | 55 | 203 | 1.7 | 3.5 | 0.00 | 0.00 | 0.00 | 85 | 1014.2 |
| 20260505112016 | 54 | 158 | 0.9 | 4.3 | 0.00 | 0.00 | 0.00 | 85 | 1014.1 |
| 20260505111016 | 54 | 180 | 0.9 | 3.5 | 0.00 | 0.00 | 0.00 | 85 | 1014.1 |
| 20260505102016 | 54 | 0.0 | 1.7 | 0.00 | 0.00 | 0.00 | 85 | 1013.8 | |
| 20260505101016 | 54 | 158 | 1.7 | 4.3 | 0.00 | 0.00 | 0.00 | 85 | 1013.7 |
| 20260505100016 | 54 | 203 | 0.9 | 2.6 | 0.00 | 0.00 | 0.00 | 85 | 1013.7 |
| 20260505095016 | 54 | 0.0 | 1.7 | 0.00 | 0.00 | 0.00 | 85 | 1013.6 | |
| 20260505094036 | 54 | 180 | 1.7 | 4.3 | 0.00 | 0.00 | 0.00 | 85 | 1013.6 |
| 20260505093016 | 54 | 203 | 1.7 | 2.6 | 0.00 | 0.00 | 0.00 | 85 | 1013.5 |
| 20260505092056 | 54 | 203 | 2.6 | 7.0 | 0.00 | 0.00 | 0.00 | 85 | 1013.4 |
| 20260505091016 | 54 | 180 | 2.6 | 9.6 | 0.00 | 0.00 | 0.00 | 85 | 1013.5 |
| 20260505090016 | 53 | 225 | 2.6 | 6.1 | 0.00 | 0.00 | 0.00 | 85 | 1013.3 |
| 20260505085056 | 53 | 180 | 0.9 | 3.5 | 0.00 | 0.00 | 0.00 | 85 | 1013.2 |
| 20260505084016 | 53 | 180 | 0.9 | 4.3 | 0.00 | 0.00 | 0.00 | 85 | 1013.3 |
| 20260505083116 | 53 | 203 | 1.7 | 4.3 | 0.00 | 0.00 | 0.00 | 85 | 1013.2 |
| 20260505082016 | 53 | 203 | 0.9 | 3.5 | 0.00 | 0.00 | 0.00 | 85 | 1013.2 |
| 20260505081016 | 53 | 0.0 | 1.7 | 0.00 | 0.00 | 0.00 | 85 | 1013.2 | |
| 20260505080016 | 53 | 0.0 | 2.6 | 0.00 | 0.00 | 0.00 | 85 | 1013.2 | |
| 20260505075016 | 53 | 203 | 0.9 | 2.6 | 0.00 | 0.00 | 0.00 | 85 | 1013.0 |
| 20260505074036 | 54 | 0.0 | 2.6 | 0.00 | 0.00 | 0.00 | 85 | 1012.9 | |
| 20260505073016 | 54 | 0.0 | 1.7 | 0.00 | 0.00 | 0.00 | 85 | 1012.7 | |
| 20260505072016 | 54 | 158 | 0.9 | 3.5 | 0.00 | 0.00 | 0.00 | 85 | 1012.6 |
| 20260505071016 | 54 | 203 | 2.6 | 5.2 | 0.00 | 0.00 | 0.00 | 85 | 1012.5 |
| 20260505070016 | 54 | 203 | 1.7 | 3.5 | 0.00 | 0.00 | 0.00 | 85 | 1012.5 |
| 20260505065016 | 54 | 203 | 0.9 | 3.5 | 0.00 | 0.00 | 0.00 | 85 | 1012.5 |
| 20260505064016 | 54 | 225 | 0.9 | 2.6 | 0.00 | 0.00 | 0.00 | 85 | 1012.4 |
| 20260505063016 | 54 | 180 | 1.7 | 4.3 | 0.00 | 0.00 | 0.00 | 85 | 1012.2 |
| 20260505062016 | 55 | 180 | 1.7 | 3.5 | 0.00 | 0.00 | 0.00 | 84 | 1012.1 |
| 20260505061016 | 55 | 180 | 1.7 | 5.2 | 0.00 | 0.00 | 0.00 | 84 | 1012.1 |
| 20260505060016 | 55 | 0.0 | 1.7 | 0.00 | 0.00 | 0.00 | 84 | 1011.9 | |
| 20260505055016 | 56 | 180 | 0.9 | 2.6 | 0.00 | 0.00 | 0.00 | 83 | 1011.8 |
| 20260505054016 | 56 | 203 | 1.7 | 5.2 | 0.00 | 0.00 | 0.00 | 83 | 1011.7 |
| 20260505053056 | 56 | 203 | 1.7 | 3.5 | 0.00 | 0.00 | 0.00 | 83 | 1011.7 |
| 20260505052016 | 57 | 203 | 0.9 | 2.6 | 0.00 | 0.00 | 0.00 | 82 | 1011.7 |
| 20260505051016 | 57 | 225 | 0.9 | 3.5 | 0.00 | 0.00 | 0.00 | 82 | 1011.6 |
| 20260505041016 | 59 | 203 | 3.5 | 7.8 | 0.00 | 0.00 | 0.00 | 77 | 1010.8 |
| 20260505040016 | 60 | 203 | 4.3 | 10.4 | 0.00 | 0.00 | 0.00 | 76 | 1010.7 |
| 20260505035016 | 61 | 180 | 3.5 | 10.4 | 0.00 | 0.00 | 0.00 | 74 | 1010.7 |
| 20260505034016 | 62 | 0.0 | 0.0 | 0.00 | 0.00 | 0.00 | 73 | 1010.5 | |
| 20260505033036 | 63 | 0.0 | 0.0 | 0.00 | 0.00 | 0.00 | 71 | 1010.3 | |
| 20260505032016 | 64 | 0.0 | 0.0 | 0.00 | 0.00 | 0.00 | 69 | 1010.2 | |
| 20260505031016 | 65 | 0.0 | 0.0 | 0.00 | 0.00 | 0.00 | 68 | 1010.1 | |
| 20260505030016 | 66 | 0.0 | 0.0 | 0.00 | 0.00 | 0.00 | 67 | 1010.0 | |
| 20260505025056 | 67 | 0.0 | 0.0 | 0.00 | 0.00 | 0.00 | 66 | 1009.9 | |
| 20260505024036 | 68 | 0.0 | 0.0 | 0.00 | 0.00 | 0.00 | 64 | 1009.8 | |
| 20260505023036 | 68 | 0.0 | 0.0 | 0.00 | 0.00 | 0.00 | 63 | 1009.6 | |
| 20260505022016 | 69 | 0.0 | 0.0 | 0.00 | 0.00 | 0.00 | 61 | 1009.7 | |
| 20260505021016 | 70 | 0.0 | 0.0 | 0.00 | 0.00 | 0.00 | 60 | 1009.6 | |
| 20260505020016 | 71 | 0.0 | 0.0 | 0.00 | 0.00 | 0.00 | 58 | 1009.5 | |
| 20260505015016 | 72 | 0.0 | 0.0 | 0.00 | 0.00 | 0.00 | 56 | 1009.5 | |
| 20260505014016 | 73 | 0.0 | 0.0 | 0.00 | 0.00 | 0.00 | 55 | 1009.5 | |
| 20260505013016 | 74 | 0.0 | 0.0 | 0.00 | 0.00 | 0.00 | 56 | 1009.5 | |
| 20260505012016 | 75 | 0.0 | 0.0 | 0.00 | 0.00 | 0.00 | 55 | 1009.4 | |
| 20260505011016 | 75 | 0.0 | 0.0 | 0.00 | 0.00 | 0.00 | 53 | 1009.6 | |
| 20260505010016 | 76 | 0.0 | 0.0 | 0.00 | 0.00 | 0.00 | 54 | 1009.6 | |
| 20260505005016 | 77 | 0.0 | 0.0 | 0.00 | 0.00 | 0.00 | 52 | 1009.6 | |
| 20260505004036 | 78 | 0.0 | 0.0 | 0.00 | 0.00 | 0.00 | 50 | 1009.5 | |
| 20260505003016 | 78 | 0.0 | 0.0 | 0.00 | 0.00 | 0.00 | 50 | 1009.6 | |
| 20260505002056 | 79 | 0.0 | 0.0 | 0.00 | 0.00 | 0.00 | 49 | 1009.6 | |
| 20260505001036 | 79 | 0.0 | 0.0 | 0.00 | 0.00 | 0.00 | 50 | 1009.6 | |
| 20260505000016 | 79 | 0.0 | 0.0 | 0.00 | 0.00 | 0.00 | 50 | 1009.6 | |
| 20260504235016 | 79 | 0.0 | 0.0 | 0.00 | 0.00 | 0.00 | 51 | 1009.6 | |
| 20260504234016 | 79 | 0.0 | 0.0 | 0.00 | 0.00 | 0.00 | 50 | 1009.5 | |
| 20260504233016 | 78 | 0.0 | 0.0 | 0.00 | 0.00 | 0.00 | 49 | 1009.6 | |
| 20260504232036 | 79 | 0.0 | 0.0 | 0.00 | 0.00 | 0.00 | 49 | 1009.6 | |
| 20260504231016 | 79 | 0.0 | 0.0 | 0.00 | 0.00 | 0.00 | 50 | 1009.8 | |
| 20260504230016 | 80 | 0.0 | 0.0 | 0.00 | 0.00 | 0.00 | 51 | 1010.0 | |
| 20260504225016 | 80 | 0.0 | 0.0 | 0.00 | 0.00 | 0.00 | 49 | 1010.1 | |
| 20260504224016 | 80 | 0.0 | 0.0 | 0.00 | 0.00 | 0.00 | 50 | 1010.2 | |
| 20260504223016 | 81 | 0.0 | 0.0 | 0.00 | 0.00 | 0.00 | 51 | 1010.1 | |
| 20260504222036 | 79 | 0.0 | 0.0 | 0.00 | 0.00 | 0.00 | 50 | 1010.3 | |
| 20260504221016 | 80 | 0.0 | 0.0 | 0.00 | 0.00 | 0.00 | 51 | 1010.4 | |
| 20260504220016 | 80 | 0.0 | 0.0 | 0.00 | 0.00 | 0.00 | 48 | 1010.4 | |
| 20260504215016 | 81 | 0.0 | 0.0 | 0.00 | 0.00 | 0.00 | 46 | 1010.5 | |
| 20260504214016 | 81 | 0.0 | 0.0 | 0.00 | 0.00 | 0.00 | 47 | 1010.6 | |
| 20260504213016 | 80 | 0.0 | 0.0 | 0.00 | 0.00 | 0.00 | 47 | 1010.6 | |
| 20260504212016 | 80 | 0.0 | 0.0 | 0.00 | 0.00 | 0.00 | 48 | 1010.7 | |
| 20260504211016 | 80 | 0.0 | 0.0 | 0.00 | 0.00 | 0.00 | 51 | 1010.7 | |
| 20260504210016 | 80 | 0.0 | 0.0 | 0.00 | 0.00 | 0.00 | 50 | 1010.8 | |
| 20260504205016 | 78 | 0.0 | 0.0 | 0.00 | 0.00 | 0.00 | 54 | 1010.9 | |
| 20260504204016 | 76 | 0.0 | 0.0 | 0.00 | 0.00 | 0.00 | 54 | 1010.7 | |
| 20260504203016 | 77 | 0.0 | 0.0 | 0.00 | 0.00 | 0.00 | 48 | 1010.9 | |
| 20260504202016 | 76 | 0.0 | 0.0 | 0.00 | 0.00 | 0.00 | 51 | 1010.8 | |
| 20260504201036 | 75 | 0.0 | 0.0 | 0.00 | 0.00 | 0.00 | 54 | 1011.0 | |
| 20260504200016 | 76 | 0.0 | 0.0 | 0.00 | 0.00 | 0.00 | 54 | 1011.2 | |
| 20260504195016 | 76 | 0.0 | 0.0 | 0.00 | 0.00 | 0.00 | 57 | 1011.0 | |
| 20260504194036 | 75 | 0.0 | 0.0 | 0.00 | 0.00 | 0.00 | 56 | 1011.1 | |
| 20260504193036 | 74 | 0.0 | 0.0 | 0.00 | 0.00 | 0.00 | 56 | 1011.1 | |
| 20260504192036 | 73 | 0.0 | 0.0 | 0.00 | 0.00 | 0.00 | 53 | 1011.2 | |
| 20260504191016 | 74 | 0.0 | 0.0 | 0.00 | 0.00 | 0.00 | 56 | 1011.3 | |
| 20260504190016 | 74 | 0.0 | 0.0 | 0.00 | 0.00 | 0.00 | 56 | 1011.3 | |
| 20260504185016 | 73 | 0.0 | 0.0 | 0.00 | 0.00 | 0.00 | 57 | 1011.4 | |
| 20260504184016 | 71 | 0.0 | 0.0 | 0.00 | 0.00 | 0.00 | 56 | 1011.4 | |
| 20260504183016 | 72 | 0.0 | 0.0 | 0.00 | 0.00 | 0.00 | 56 | 1011.6 | |
| 20260504182016 | 71 | 0.0 | 0.0 | 0.00 | 0.00 | 0.00 | 57 | 1011.6 | |
| 20260504181026 | 71 | 0.0 | 0.0 | 0.00 | 0.00 | 0.00 | 59 | 1011.7 | |
| 20260504180026 | 70 | 0.0 | 0.0 | 0.00 | 0.00 | 0.00 | 59 | 1011.5 | |
| 20260504175026 | 70 | 0.0 | 0.0 | 0.00 | 0.00 | 0.00 | 59 | 1011.5 | |
| 20260504174026 | 70 | 0.0 | 0.0 | 0.00 | 0.00 | 0.00 | 62 | 1011.5 | |
| 20260504173106 | 69 | 0.0 | 0.0 | 0.00 | 0.00 | 0.00 | 63 | 1011.5 | |
| 20260504172026 | 70 | 0.0 | 0.0 | 0.00 | 0.00 | 0.00 | 60 | 1011.4 | |
| 20260504171016 | 69 | 0.0 | 0.0 | 0.00 | 0.00 | 0.00 | 61 | 1011.3 |